#timestamp,LO_Frequency,Hit,StdDev 
1522620015.6,286047005.3,N
1522620035.4,286047003.0,N
1522620055.3,286047009.1,N
1522620075.1,286047009.3,N
1522620095.8,286047009.9,N
1522620115.7,286047010.8,Y
1522620135.5,286047005.6,P
1522620155.4,286047004.2,P
1522620175.2,286047001.4,N
1522620195.0,286047002.4,N
1522620195.9,286047002.4,N
1522620215.8,286047001.0,N
1522620235.6,286046998.8,N
1522620255.5,286046998.2,N
1522620275.3,286046998.3,N
1522620295.1,286046998.9,N
1522620315.9,286047001.2,N
1522620335.7,286047002.2,N
1522620355.6,286046999.7,N
1522620375.4,286046999.8,N
1522620395.2,286046998.6,N
1522620415.1,286046996.9,N
1522620416.0,286046996.9,N
1522620435.8,286046999.0,N
1522620455.6,286046999.6,N
1522620475.5,286046998.2,N
1522620495.3,286046997.5,N
1522620515.2,286046997.0,N
1522620535.9,286046996.9,N
1522620555.7,286046996.5,N
1522620575.6,286046996.6,N
1522620595.4,286046996.6,N
1522620615.3,286046997.2,N
1522620635.1,286046996.8,N
1522620636.0,286046996.8,N
1522620655.8,286046999.6,N
1522620675.7,286046998.7,N
1522620695.5,286046999.1,N
1522620715.3,286046996.5,N
1522620735.2,286046999.2,N
1522620755.0,286046997.2,N
1522620755.9,286046997.2,N
1522620775.8,286046997.5,N
1522620795.6,286046997.9,N
1522620815.5,286046995.4,Y
1522620835.3,286046998.5,P
1522620855.1,286047001.2,P
1522620875.9,286047000.4,N
1522620895.7,286047000.3,N
1522620915.5,286047000.6,N
1522620935.4,286047000.3,N
1522620955.2,286047000.9,N
1522620975.1,286047000.5,N
1522620976.0,286047000.5,N
1522620995.8,286047000.2,N
1522621015.6,286047000.4,N
1522621035.5,286047000.0,N
1522621055.3,286047000.1,N
1522621075.2,286047000.2,N
1522621095.9,286047000.4,N
1522621115.7,286046999.7,N
1522621135.6,286047002.5,Y
1522621155.4,286046999.7,P
1522621175.2,286046999.9,N
1522621195.1,286046998.1,P
1522621196.0,286046998.1,N
1522621215.8,286047000.6,N
1522621235.7,286046999.8,N
1522621255.5,286046998.7,N
1522621275.3,286046997.0,Y
1522621295.2,286046998.2,P
1522621315.0,286047000.0,N
1522621315.9,286047000.0,N
1522621335.8,286047000.1,N
1522621355.6,286047002.8,Y
1522621375.4,286047000.5,P
1522621395.3,286046999.8,N
1522621415.1,286047004.8,P
1522621465.9,286047003.4,E
1522621475.8,286047002.6,N
1522621495.6,286047000.8,P
1522621515.5,286047000.9,N
1522621535.3,286047000.1,N
1522621555.2,286046999.9,N
1522621575.9,286046998.2,N
1522621595.7,286046998.5,N
1522621615.6,286047002.7,N
1522621635.4,286047004.4,N
1522621655.2,286047000.2,N
1522621675.1,286047002.7,N
1522621676.0,286047002.7,N
1522621695.8,286047000.9,N
1522621715.7,286047000.3,N
1522621735.5,286046998.1,N
1522621755.3,286046999.1,N
1522621775.2,286046999.5,N
1522621795.0,286046998.5,N
1522621795.9,286046998.5,N
1522621815.8,286047000.8,N
1522621835.6,286046998.4,N
1522621855.4,286047001.1,N
1522621875.3,286047000.0,N
1522621895.1,286046999.7,N
1522621915.8,286047001.0,N
1522621935.7,286046998.8,N
1522621955.5,286046998.4,N
1522621975.4,286047000.6,N
1522621995.2,286047000.6,N
1522622015.0,286046998.1,N
1522622015.9,286046998.1,N
1522622035.8,286046998.8,N
1522622055.6,286046999.2,N
1522622075.5,286047001.2,N
1522622095.3,286046998.4,N
1522622115.1,286046998.3,N
1522622135.9,286046998.7,N
1522622155.7,286046999.2,N
1522622175.6,286046999.0,N
1522622195.4,286046998.2,N
1522622215.2,286046999.1,N
1522622235.1,286046999.4,N
1522622236.0,286046999.4,N
1522622255.8,286046999.4,N
1522622275.6,286046998.4,N
1522622295.5,286046998.8,N
1522622315.3,286046998.6,N
1522622335.2,286046998.5,N
1522622355.9,286046998.3,N
1522622375.7,286046999.1,N
1522622395.6,286047001.2,N
1522622415.4,286047001.2,N
1522622435.2,286046998.4,N
1522622455.1,286046998.9,N
1522622456.0,286046998.9,N
1522622475.8,286046998.6,N
1522622495.7,286047001.0,N
1522622515.5,286047000.5,N
1522622535.3,286047000.2,N
1522622555.2,286047003.9,Y
1522622575.0,286047002.2,P
1522622575.9,286047002.2,N
1522622595.8,286047002.2,N
1522622615.6,286047002.5,N
1522622635.4,286047001.6,N
1522622655.3,286047001.9,N
1522622675.1,286047001.6,N
1522622695.9,286047001.5,N
1522622715.7,286047002.1,N
1522622735.5,286046999.8,N
1522622755.4,286046999.8,N
1522622775.2,286047002.3,N
1522622795.0,286047002.2,N
1522622796.0,286047002.2,N
1522622815.8,286047000.3,N
1522622835.6,286047001.1,N
1522622855.5,286046998.2,N
1522622875.3,286046998.4,N
1522622895.1,286047001.0,N
1522622915.9,286047000.6,N
1522622935.7,286046998.4,N
1522622955.6,286047001.0,N
1522622975.4,286047000.5,N
1522622995.2,286047002.0,N
1522623015.1,286047001.5,N
1522623016.0,286047001.5,N
1522623035.8,286047001.4,N
1522623055.7,286047002.4,N
1522623075.5,286047000.3,N
1522623095.3,286047000.7,N
1522623115.2,286047002.4,N
1522623135.0,286047002.8,N
1522623135.9,286047002.8,N
1522623155.8,286047000.2,N
1522623175.6,286047000.6,N
1522623195.4,286046998.6,N
1522623215.3,286047001.2,N
1522623235.1,286046998.2,N
1522623255.8,286046998.1,N
1522623275.7,286047000.8,N
1522623295.5,286047000.2,N
1522623315.4,286047011.9,Y
1522623335.2,286046998.6,P
1522623355.0,286047000.4,N
1522623355.9,286047000.4,N
1522623375.8,286047000.1,N
1522623395.6,286047000.2,N
1522623415.5,286047002.4,Y
1522623435.3,286047001.8,P
1522623455.1,286047000.0,N
1522623475.9,286046998.6,N
1522623495.7,286047001.1,N
1522623515.5,286047000.4,N
1522623535.4,286047000.3,N
1522623555.2,286047000.6,N
1522623575.1,286047000.9,N
1522623576.0,286047000.9,N
1522623595.8,286047000.0,N
